Погода в Бараниковке

Украина / Луганская область     49°09′46″N   39°51′26″E
темп.,
°C
ветер,
м/с
пор.,
м/с
влажн.,
%
обл.,
%
осадки,
мм/ч
давл.,
гПа
погр.,
м
19 января, вт
вт1923:00−18ююв019988 0.0 101720
02:00−19юз1210091 0.0 101820
05:00−17ююз229895 0.1 101820
08:00−17ююз129797 0.1 101926
11:00−15юз249493 0.0 1018243
14:00−15юз239587 0.0 1017128
17:00−18зюз239883 0.0 101920
20:00−18зюз229888 0.1 102020
20 января, ср
ср2023:00−18зсз339892 0.0 102127
02:00−20зсз239979 0.1 102220
05:00−21зсз239859 0.0 102422
08:00−22зсз239737 0.0 102531
11:00−18зсз349250 0.0 1027238
14:00−17з259463 0.0 1026248
17:00−20з239614 0.0 102820
20:00−21зсз12977 0.0 102920
21 января, чт
чт2123:00−21з11970 0.0 103020
02:00−21юз11990 0.0 103020
05:00−21ююз1210014 0.0 103020
08:00−20ю22947 0.0 103120
11:00−15ю34890 0.0 1030169
14:00−13ю37933 0.0 1028232
17:00−12ю389471 0.0 1028163
20:00−10ююз5129481 0.0 1026279
22 января, пт
пт2223:00−7ююз5119593 0.1 1024330
02:00−5юз4119695 0.3 1023344
05:000зюз51096100 0.0 1022539
08:00+1юз41197100 0.0 1023424
11:00+1юз511100100 0.0 1023416
14:00+1зюз51399100 0.0 1022464
17:000ю4109891 0.0 1022231
20:00+1ююз4129895 0.0 1022398
23 января, сб
сб2323:00+1ююз4119899 0.0 1022340
02:00+1ююз4129795 0.0 1022324
05:00+1ю51197100 0.0 1021321
08:00+1ю51298100 0.0 1022356
11:00+2ю51210098 0.0 1021368
14:00+2ю61310099 0.0 1020373
17:00+2ю51196100 0.0 1020359
20:00+2ю51195100 0.0 1020333